Kenosha, WI

3:03 PM CDT on September 19, 2017 (GMT -0500)
Kenosha Regional

Weather History for KENW - August, 2013

Change the Weather History Date:

Sunday, August 11, 2013

  Actual Average Record
Temperature  
Mean Temperature 62 °F -  
Max Temperature 75 °F 75 °F 95 °F (2016)
Min Temperature 51 °F 59 °F 48 °F (1985)
Degree Days  
Heating Degree Days 3    
Growing Degree Days 12 (Base 50)    
Moisture  
Dew Point 56 °F    
Average Humidity 87    
Maximum Humidity 100    
Minimum Humidity 61    
Precipitation  
Precipitation 0.00 in - - ()
Sea Level Pressure  
Sea Level Pressure 30.11 in    
Wind  
Wind Speed 1 mph (WSW)    
Max Wind Speed 8 mph    
Max Gust Speed -    
Visibility 6 miles    
Events Fog , Rain    
Averages and records for this station are not official NWS values.
T = Trace of Precipitation, MM = Missing Value Source: NWS Daily Summary

Daily Weather History Graph

Daily Weather History Graph

Search for Another Location

Airport or City:

Trip Planner

Search our weather history database for the weather conditions in past years. The results will help you decide how hot, cold, wet, or windy it might be!

Date:

Astronomy

Aug. 11, 2013 Rise Set
Actual Time 5:54 AM CDT 7:58 PM CDT
Civil Twilight 5:23 AM CDT 8:29 PM CDT
Nautical Twilight 4:45 AM CDT 9:06 PM CDT
Astronomical Twilight 4:04 AM CDT 9:48 PM CDT
Moon 10:50 AM CDT (8/11) 10:05 PM CDT (8/11)
Length of Visible Light 15h 05m
Length of Day
14h 04m
Waxing Crescent, 22% of the Moon is Illuminated
Aug 11
Waxing Crescent
Aug 14
First Quarter
Aug 20
Full
Aug 28
Last Quarter
Sep 5
New

Hourly Weather History & Observations

Time (CDT) Temp. Dew Point Humidity Pressure Visibility Wind Dir Wind Speed Gust Speed Precip Events Conditions
12:53 AM 55.9 °F 55.0 °F 97% 30.14 in 6.0 mi Calm Calm - N/A   Clear
1:53 AM 55.9 °F 54.0 °F 93% 30.14 in 6.0 mi Calm Calm - N/A   Clear
2:53 AM 54.0 °F 54.0 °F 100% 30.13 in 7.0 mi Calm Calm - N/A   Clear
2:58 AM 53.6 °F 53.6 °F 100% 30.13 in 1.8 mi Calm Calm - N/A   Clear
3:13 AM 53.6 °F 51.8 °F 94% 30.13 in 2.5 mi Calm Calm - N/A   Clear
3:34 AM 53.6 °F 51.8 °F 94% 30.14 in 1.5 mi Calm Calm - N/A   Clear
3:39 AM 53.6 °F 51.8 °F 94% 30.13 in 3.0 mi Calm Calm - N/A   Clear
3:53 AM 54.0 °F 53.1 °F 97% 30.13 in 4.0 mi Calm Calm - N/A   Clear
4:05 AM 53.6 °F 53.6 °F 100% 30.13 in 1.5 mi Calm Calm - N/A   Clear
4:14 AM 53.6 °F 53.6 °F 100% 30.13 in 0.8 mi West 3.5 mph - N/A   Clear
4:17 AM 53.6 °F 53.6 °F 100% 30.13 in 2.0 mi West 3.5 mph - N/A   Clear
4:24 AM 53.6 °F 51.8 °F 94% 30.13 in 3.0 mi Calm Calm - N/A   Clear
4:41 AM 53.6 °F 53.6 °F 100% 30.13 in 1.8 mi Calm Calm - N/A   Clear
4:53 AM 53.1 °F 52.0 °F 96% 30.13 in 1.2 mi West 3.5 mph - N/A   Clear
4:57 AM 53.6 °F 51.8 °F 94% 30.13 in 3.0 mi Calm Calm - N/A   Clear
5:18 AM 55.4 °F 53.6 °F 94% 30.13 in 1.8 mi Calm Calm - N/A   Clear
5:29 AM 53.6 °F 53.6 °F 100% 30.13 in 0.8 mi Calm Calm - N/A   Clear
5:36 AM 53.6 °F 51.8 °F 94% 30.13 in 1.0 mi Calm Calm - N/A   Clear
5:44 AM 53.6 °F 51.8 °F 94% 30.13 in 0.2 mi WNW 3.5 mph - N/A Fog Fog
5:53 AM 53.1 °F 51.1 °F 93% 30.13 in 0.2 mi WNW 3.5 mph - N/A Fog Fog
6:06 AM 51.8 °F 51.8 °F 100% 30.14 in 0.8 mi WNW 4.6 mph - N/A   Clear
6:12 AM 53.6 °F 51.8 °F 94% 30.14 in 2.0 mi WNW 3.5 mph - N/A   Clear
6:38 AM 55.4 °F 55.4 °F 100% 30.14 in 4.0 mi Calm Calm - N/A   Clear
6:53 AM 57.9 °F 57.0 °F 97% 30.14 in 8.0 mi Calm Calm - N/A   Clear
7:53 AM 64.9 °F 62.1 °F 90% 30.14 in 8.0 mi Calm Calm - N/A   Clear
8:53 AM 68.0 °F 60.1 °F 76% 30.14 in 8.0 mi West 3.5 mph - N/A   Overcast
9:53 AM 72.0 °F 61.0 °F 68% 30.14 in 10.0 mi West 4.6 mph - N/A   Overcast
10:53 AM 70.0 °F 57.9 °F 65% 30.14 in 10.0 mi WNW 8.1 mph - N/A   Overcast
11:53 AM 69.1 °F 59.0 °F 70% 30.14 in 10.0 mi WNW 4.6 mph - 0.00 in   Overcast
12:53 PM 71.1 °F 60.1 °F 68% 30.12 in 10.0 mi Calm Calm - N/A   Mostly Cloudy
1:53 PM 73.0 °F 59.0 °F 61% 30.10 in 10.0 mi South 8.1 mph - N/A   Mostly Cloudy
2:53 PM 73.0 °F 61.0 °F 66% 30.09 in 10.0 mi ESE 8.1 mph - N/A   Scattered Clouds
3:53 PM 72.0 °F 61.0 °F 68% 30.09 in 10.0 mi ESE 6.9 mph - N/A   Overcast
4:53 PM 72.0 °F 61.0 °F 68% 30.07 in 10.0 mi SE 8.1 mph - N/A   Overcast
5:53 PM 72.0 °F 61.0 °F 68% 30.06 in 10.0 mi ESE 3.5 mph - N/A   Mostly Cloudy
6:53 PM 72.0 °F 62.1 °F 71% 30.05 in 10.0 mi SE 4.6 mph - N/A   Mostly Cloudy
7:53 PM 71.1 °F 61.0 °F 70% 30.04 in 10.0 mi SE 3.5 mph - N/A   Mostly Cloudy
8:53 PM 70.0 °F 61.0 °F 73% 30.04 in 10.0 mi Calm Calm - N/A   Scattered Clouds
9:53 PM 64.9 °F 62.1 °F 90% 30.05 in 10.0 mi Calm Calm - N/A   Clear
10:53 PM 66.0 °F 62.1 °F 87% 30.04 in 10.0 mi Calm Calm - N/A   Overcast
11:53 PM 66.9 °F 63.0 °F 87% 30.04 in 9.0 mi Calm Calm - 0.00 in Rain Light Rain